Weather History for KCAG - September, 2013

Change the Weather History Date:

Thursday, September 19, 2013

  Actual Average Record
Temperature  
Mean Temperature 52 °F 54 °F  
Max Temperature 67 °F 73 °F - ()
Min Temperature 36 °F 36 °F - ()
Degree Days  
Heating Degree Days 13 11  
Month to date heating degree days 32 141  
Since 1 July heating degree days 37 218  
Cooling Degree Days 0 0  
Month to date cooling degree days 45 0  
Year to date cooling degree days 377 140  
Growing Degree Days 2 (Base 50)    
Moisture  
Dew Point 29 °F    
Average Humidity 53    
Maximum Humidity 85    
Minimum Humidity 20    
Precipitation  
Precipitation 0.00 in 0.07 in - ()
Month to date precipitation 2.14 1.19  
Year to date precipitation 8.26 11.25  
Sea Level Pressure  
Sea Level Pressure 30.07 in    
Wind  
Wind Speed 4 mph (West)    
Max Wind Speed 14 mph    
Max Gust Speed 16 mph    
Visibility 10 miles    
Events      
T = Trace of Precipitation, MM = Missing Value Source: NWS Daily Summary

Daily Weather History Graph

Daily Weather History Graph

Search for Another Location

Airport or City:

Trip Planner

Search our weather history database for the weather conditions in past years. The results will help you decide how hot, cold, wet, or windy it might be!

Date:

Astronomy

Sep. 19, 2013 Rise Set
Actual Time 6:55 AM MDT 7:11 PM MDT
Civil Twilight 6:27 AM MDT 7:38 PM MDT
Nautical Twilight 5:55 AM MDT 8:10 PM MDT
Astronomical Twilight 5:22 AM MDT 8:43 PM MDT
Moon 7:11 PM MDT (9/19) 7:07 AM MDT (9/19)
Length of Visible Light 13h 11m
Length of Day
12h 16m
Full, 100% of the Moon is Illuminated
Sep 19
Full
Sep 26
Last Quarter
Oct 4
New
Oct 11
First Quarter
Oct 18
Full

Hourly Weather History & Observations

Time (MDT) Temp. Windchill Dew Point Humidity Pressure Visibility Wind Dir Wind Speed Gust Speed Precip Events Conditions
12:53 AM 54.0 °F - 27.0 °F 35% 29.93 in 10.0 mi NW 5.8 mph - N/A   Mostly Cloudy
1:53 AM 52.0 °F - 30.0 °F 43% 29.98 in 10.0 mi SW 6.9 mph - N/A   Mostly Cloudy
2:53 AM 48.9 °F - 32.0 °F 52% 29.96 in 10.0 mi Calm Calm - N/A   Partly Cloudy
3:53 AM 43.0 °F 39.5 °F 30.0 °F 60% 29.98 in 10.0 mi West 5.8 mph - N/A   Clear
4:53 AM 42.1 °F 38.4 °F 30.0 °F 62% 29.99 in 10.0 mi SW 5.8 mph - N/A   Clear
5:53 AM 42.1 °F 37.7 °F 30.0 °F 62% 30.02 in 10.0 mi SW 6.9 mph - N/A   Clear
6:53 AM 37.0 °F 31.6 °F 30.0 °F 76% 30.08 in 10.0 mi SW 6.9 mph - N/A   Clear
7:53 AM 43.0 °F 39.5 °F 30.9 °F 62% 30.10 in 10.0 mi WSW 5.8 mph - N/A   Clear
8:53 AM 50.0 °F - 28.9 °F 44% 30.11 in 10.0 mi Variable 3.5 mph - N/A   Clear
9:53 AM 55.0 °F - 28.0 °F 35% 30.09 in 10.0 mi North 4.6 mph - N/A   Clear
10:53 AM 57.0 °F - 25.0 °F 29% 30.10 in 10.0 mi Calm Calm - N/A   Clear
11:53 AM 60.1 °F - 21.9 °F 23% 30.09 in 10.0 mi West 5.8 mph - N/A   Clear
12:53 PM 60.1 °F - 24.1 °F 25% 30.08 in 10.0 mi Variable 4.6 mph - N/A   Clear
1:53 PM 63.0 °F - 27.0 °F 26% 30.05 in 9.0 mi Variable 4.6 mph - N/A   Clear
2:53 PM 63.0 °F - 26.1 °F 25% 30.06 in 10.0 mi Variable 4.6 mph - N/A   Clear
3:53 PM 64.9 °F - 26.1 °F 23% 30.07 in 10.0 mi Variable 3.5 mph - N/A   Clear
4:53 PM 64.9 °F - 25.0 °F 22% 30.06 in 10.0 mi WNW 9.2 mph - N/A   Clear
5:53 PM 64.0 °F - 23.0 °F 21% 30.06 in 10.0 mi WNW 6.9 mph - N/A   Clear
6:53 PM 61.0 °F - 27.0 °F 27% 30.10 in 10.0 mi Calm Calm - N/A   Clear
7:53 PM 48.9 °F - 34.0 °F 56% 30.14 in 10.0 mi Calm Calm - N/A   Clear
8:53 PM 45.0 °F - 33.1 °F 63% 30.14 in 10.0 mi Calm Calm - N/A   Clear
9:53 PM 44.1 °F - 34.0 °F 68% 30.14 in 10.0 mi Calm Calm - N/A   Clear
10:53 PM 41.0 °F - 33.1 °F 73% 30.15 in 10.0 mi Calm Calm - N/A   Clear
11:53 PM 37.9 °F - 33.1 °F 83% 30.15 in 10.0 mi Calm Calm - N/A   Clear